Regional Weather Roundup
Issued by NWS Sioux Falls, SD

Home | Current Version | Previous Version | Text Only | Print | Product List | Glossary Off
Versions: 1 2 3 4 5 6 7 8 9 10 11 12 13 14 15 16 17 18 19 20 21 22 23 24 25 26 27 28 29 30 31 32 33 34 35 36 37 38 39 40 41 42 43 44 45 46 47 48 49 50

000
ASUS43 KFSD 010002
RWRFSD

WEATHER ROUNDUP FOR SE SOUTH DAKOTA/SW MINNESOTA/NW IOWA
NATIONAL WEATHER SERVICE SIOUX FALLS SD
700 PM CDT FRI SEP 30 2016

NOTE: "FAIR" INDICATES FEW OR NO CLOUDS BELOW 12,000 FEET WITH NO
SIGNIFICANT WEATHER AND OR OBSTRUCTIONS TO VISIBILITY.


SDZ038>040-050-052>070-010100-
SOUTHEAST SOUTH DAKOTA

CITY           SKY/WX    TMP DP  RH WIND       PRES   REMARKS
CHAMBERLAIN    PTCLDY    68  47  47 SE9       30.12S
6HR MIN TEMP:  68; 6HR MAX TEMP:  75;

HURON          PTCLDY    67  46  47 SE8       30.14F
6HR MIN TEMP:  67; 6HR MAX TEMP:  73;

MADISON        FAIR      64  45  48 SE3       30.19S
MITCHELL       PTCLDY    68  45  43 SE7       30.16S
6HR MIN TEMP:  68; 6HR MAX TEMP:  75;

SIOUX FALLS    MOCLDY    68  46  45 SE7       30.17F
6HR MIN TEMP:  68; 6HR MAX TEMP:  75;

WINNER         FAIR      67  47  48 SE10      30.12R
YANKTON        CLOUDY    66  46  48 E6        30.15S
$$

MNZ071-072-080-081-089-090-097-098-010100-
SOUTHWEST MINNESOTA

CITY           SKY/WX    TMP DP  RH WIND       PRES   REMARKS
FAIRMONT       CLOUDY    67  53  61 NE3       30.20S
JACKSON        MOCLDY    64  48  55 NE5       30.21S
LUVERNE        CLEAR     64  43  45 E3        30.19S
MARSHALL       CLEAR     66  47  50 E7        30.20F
6HR MIN TEMP:  66; 6HR MAX TEMP:  71;

MONTEVIDEO     CLEAR     63  46  55 SE6       30.22F
PIPESTONE      CLEAR     64  41  42 E5        30.20S
REDWOOD FALLS  CLEAR     66  47  50 E5        30.20F
TRACY          CLEAR     64  49  58 CALM      30.21S
WINDOM         CLEAR     64  48  55 E6        30.21S
WORTHINGTON    CLEAR     61  49  64 E5        30.21S
$$

IAZ001>003-012>014-020>022-031-032-NEZ013-014-SDZ071-010100-
NORTHWEST IOWA

CITY           SKY/WX    TMP DP  RH WIND       PRES   REMARKS
CHEROKEE       PTCLDY    65  51  62 E5        30.17S
DENISON        CLOUDY    66  55  68 E7        30.15S
ESTHERVILLE    CLOUDY    66  54  65 E8        30.19S
LE MARS        CLEAR     68  46  45 CALM      30.17F
SHELDON        CLEAR     64  48  55 E7        30.17S
SIOUX CITY     CLEAR     69  47  45 E3        30.16S
6HR MIN TEMP:  68; 6HR MAX TEMP:  76;

SPENCER        PTCLDY    65  52  62 E7        30.18F
6HR MIN TEMP:  65; 6HR MAX TEMP:  73;

STORM LAKE     CLEAR     63  52  67 E6        30.18F
$$

ABBREVIATIONS USED IN REMARKS
   TC - TEMPERATURE IN CELSIUS
  WCI - WIND CHILL INDEX
   HX - HEAT INDEX
  VSB - VISIBILITY




USA.gov is the U.S. government's official web portal to all federal, state and local government web resources and services.